Theta_e
334 334 334 331 330 332 332 331 331 331 330 330 330 330 329 329 329 329 328 328 327 327 325 324 324 321 322 322 318 320 320 316 319 321 320 322 316 310 314 316 314 314 314 315 316 314 311 311 311 309 307 305 301 300 300 301 302 302 302 303 301 300 300 298 298 297 297 296 296 296 296 296 296 296
333 332 332 331 330 331 333 331 331 331 331 331 330 329 328 327 329 329 328 329 328 327 326 325 324 321 321 321 318 321 318 312 317 321 320 321 314 305 309 311 308 308 308 310 310 308 307 308 309 308 305 303 301 299 299 299 300 301 301 301 301 300 299 298 298 297 297 297 296 296 296 296 296 296
332 331 331 331 330 332 332 332 332 332 331 331 330 329 329 329 329 328 328 329 328 327 326 326 324 321 320 319 317 319 314 308 312 318 319 317 308 301 304 304 302 303 303 305 306 304 305 306 306 306 303 301 300 300 299 299 299 300 300 301 300 300 299 298 298 298 297 297 296 296 296 296 296 295
332 332 331 330 330 332 332 331 331 332 331 331 330 329 329 329 330 328 327 328 328 327 327 325 323 321 320 318 316 317 313 306 307 314 317 310 302 304 305 299 299 301 300 302 302 302 303 303 303 303 301 300 300 300 300 299 299 300 300 300 299 299 298 299 299 298 298 298 297 296 296 296 296 295
332 331 331 330 330 332 331 330 331 331 331 331 330 329 328 329 329 328 327 327 328 327 326 324 322 321 319 318 317 316 313 307 305 310 312 305 304 312 311 302 301 302 302 302 301 301 301 301 301 301 300 300 299 299 300 299 299 299 299 299 299 299 299 299 299 299 298 298 297 297 296 296 296 295
332 331 331 330 331 331 330 330 330 330 331 330 329 329 328 328 328 328 326 326 326 326 325 322 320 319 318 317 317 316 313 310 307 308 310 306 307 313 312 308 307 306 307 307 306 305 304 304 304 303 302 302 301 300 300 299 300 299 299 299 299 299 299 299 299 299 298 298 298 297 297 296 296 296
331 332 331 330 331 331 330 330 330 330 330 329 328 328 327 327 327 327 327 325 324 324 323 321 319 319 318 318 317 316 314 311 308 307 308 308 308 309 310 311 310 310 311 311 310 310 309 309 309 308 307 307 305 305 303 302 301 300 300 300 299 300 299 299 299 299 299 299 298 298 297 296 296 296
331 332 331 331 331 331 330 330 330 330 330 329 327 327 327 327 327 327 327 325 323 322 321 320 319 318 318 318 317 316 315 311 308 308 308 308 309 309 310 310 310 310 311 311 311 312 311 311 311 311 311 310 310 309 308 307 305 304 303 302 301 301 300 300 300 300 300 299 299 299 298 297 297 296
331 331 331 331 331 331 330 331 330 330 330 328 327 327 327 327 328 328 327 325 323 321 320 320 319 318 317 317 315 315 315 311 308 308 308 309 309 310 310 310 310 310 310 310 310 311 311 311 311 311 311 311 311 311 310 310 309 308 307 306 305 303 302 302 301 301 300 300 300 300 299 299 297 296
331 331 331 331 331 331 331 331 331 330 330 329 328 328 327 327 328 328 327 325 323 321 320 319 318 318 317 316 316 315 314 313 310 308 309 309 310 311 312 312 310 310 310 310 310 310 310 310 310 310 310 310 311 310 310 310 310 310 309 309 308 306 304 303 302 301 301 301 301 300 300 300 298 297
331 331 331 331 331 331 330 331 331 331 330 329 329 328 328 327 328 328 326 325 324 323 321 320 319 319 318 317 317 315 314 314 312 310 310 310 310 311 312 313 312 311 310 310 310 310 310 310 310 310 310 310 310 310 310 310 309 310 309 309 308 307 306 305 303 302 302 301 301 301 301 300 300 298
331 331 331 331 331 330 330 331 331 331 330 330 329 330 328 327 327 327 326 325 324 324 322 321 320 319 319 318 317 316 315 315 314 313 312 312 312 312 312 313 313 313 313 312 312 311 310 310 310 309 309 310 310 309 309 309 308 308 308 307 307 306 305 304 303 302 302 302 301 301 301 300 300 299
331 330 331 331 330 330 330 330 330 331 330 329 329 329 328 327 327 327 326 325 325 324 323 322 320 320 319 318 318 317 316 316 316 315 314 314 314 314 314 314 314 314 314 314 313 313 313 312 311 311 311 311 312 312 311 310 310 309 308 307 307 306 305 304 303 302 301 301 301 301 301 300 300 300
332 331 331 330 330 330 329 329 329 329 329 329 328 328 329 328 327 327 326 324 324 324 323 322 322 321 320 319 319 319 318 318 318 317 316 316 315 315 315 315 314 314 314 313 314 314 314 314 314 314 314 314 314 314 314 312 311 310 310 310 309 308 307 305 304 303 302 301 301 301 301 301 300 300
331 330 329 328 328 327 327 326 327 327 327 326 326 327 327 328 328 328 327 326 325 324 323 322 322 322 322 322 320 320 320 319 318 318 318 317 316 316 316 317 317 315 315 314 315 316 316 316 316 317 317 316 316 315 314 312 311 311 311 311 311 310 309 308 306 305 304 303 302 301 301 301 300 300
330 328 327 326 326 325 325 324 323 323 321 321 321 322 322 324 327 328 327 327 326 325 324 323 323 322 322 322 321 320 319 319 318 318 318 318 317 317 318 318 318 317 316 316 317 318 318 317 317 318 318 317 316 314 313 311 311 311 311 311 311 311 311 310 308 307 305 304 303 302 301 301 300 299
329 328 327 326 325 324 323 321 320 319 318 318 318 318 318 320 321 323 324 324 324 324 323 323 322 322 322 322 321 319 319 319 319 319 319 319 319 319 319 320 320 318 317 318 319 319 318 317 318 318 317 316 315 314 312 311 310 309 310 310 310 310 310 310 309 308 306 304 303 302 302 301 301 299
328 327 327 325 323 322 321 320 318 317 318 319 320 320 320 319 318 318 318 319 320 323 324 324 324 323 323 323 321 319 319 321 322 322 321 321 321 321 321 321 320 318 316 318 319 318 318 317 317 317 316 315 314 313 312 310 308 307 307 308 308 308 309 309 309 308 307 304 303 302 301 301 300 299
327 326 325 324 323 323 322 321 320 321 322 322 323 322 320 319 318 317 317 317 319 322 323 323 322 321 321 321 320 319 320 321 321 321 322 321 321 321 321 319 318 316 314 315 317 317 317 316 315 315 314 313 313 312 310 309 307 305 305 306 306 306 307 307 307 307 306 304 302 301 301 301 300 298
326 326 324 324 325 325 322 320 321 323 324 323 323 322 320 318 318 318 318 318 318 319 320 319 319 318 318 318 318 318 319 320 320 320 320 320 319 320 319 317 316 315 313 312 314 314 314 313 312 311 311 310 310 309 309 308 306 304 304 304 304 304 305 305 305 306 305 303 302 300 300 300 299 297
324 325 325 325 325 323 319 318 319 321 322 323 323 322 321 319 317 316 317 318 318 318 318 318 317 317 316 316 316 316 316 317 317 318 319 318 317 317 316 316 315 314 312 310 310 312 312 311 310 309 309 309 309 308 307 306 305 304 304 303 303 303 303 303 304 304 304 303 301 300 299 299 298 296
321 322 323 323 322 319 317 317 318 319 322 323 322 322 321 319 317 315 314 315 315 315 316 315 315 314 313 313 313 312 313 313 314 316 317 315 314 314 314 314 313 313 311 307 307 309 310 309 308 308 307 308 309 307 306 305 304 304 303 303 303 302 302 302 303 303 303 302 301 299 298 297 296 294
318 319 320 320 319 317 318 318 318 319 322 323 321 321 320 319 317 315 314 314 314 314 314 313 313 312 312 311 311 310 310 310 310 313 314 313 312 311 311 311 310 311 310 306 305 308 309 307 307 307 306 307 308 306 305 304 304 303 303 303 303 302 301 301 301 301 302 301 300 298 297 296 294 293
316 317 318 318 318 318 318 317 317 318 320 320 320 320 319 317 316 315 315 314 314 314 313 312 311 311 310 310 309 309 309 308 308 309 311 311 311 310 309 309 308 309 308 305 304 307 308 306 306 306 305 306 305 304 305 304 303 302 302 302 302 302 301 300 300 300 300 300 298 297 295 294 293 294
314 315 315 316 316 316 315 315 314 314 315 316 317 317 317 315 314 314 314 313 312 312 311 310 310 309 309 308 308 307 307 307 307 307 308 308 309 309 309 308 307 307 306 304 304 306 306 305 305 304 304 304 304 303 304 304 303 302 302 301 301 301 301 301 300 300 299 298 297 295 294 293 293 294
311 311 312 312 311 311 311 310 310 309 309 310 311 311 310 310 310 311 311 311 310 310 309 308 308 307 307 307 306 306 305 305 305 305 305 306 306 306 306 307 307 306 304 303 303 304 304 304 303 303 303 303 303 302 303 303 302 302 301 301 301 300 300 300 300 300 299 298 297 295 294 294 294 294
309 309 308 307 307 307 307 307 306 306 306 305 304 303 303 302 303 306 307 307 307 307 307 307 307 306 306 306 305 305 305 304 304 304 304 304 303 303 302 303 304 304 303 302 302 302 302 302 302 302 302 302 302 302 302 302 301 301 301 300 300 300 300 300 300 300 299 299 298 298 297 296 295 295
307 306 305 304 304 305 305 304 303 303 302 302 301 300 299 299 300 302 304 305 305 306 306 306 306 306 306 306 305 304 304 303 303 303 303 303 303 302 302 301 301 301 301 302 301 301 301 301 301 301 301 301 301 301 301 301 301 301 300 300 300 300 299 299 299 299 299 299 299 298 298 298 297 296
305 304 303 303 303 303 302 302 302 301 301 300 299 298 298 300 302 303 303 303 304 305 305 305 305 305 305 305 304 303 303 303 302 302 302 302 302 302 301 301 300 300 300 300 301 300 300 300 300 300 301 300 300 300 300 300 300 300 300 299 299 299 299 299 299 299 299 299 299 298 298 298 298 298
303 303 303 303 302 302 302 302 302 301 300 299 298 298 298 300 302 303 304 304 304 304 304 304 304 304 304 304 303 303 303 303 302 302 302 302 302 301 301 301 300 300 300 300 300 300 300 300 300 300 300 300 300 300 300 300 300 300 299 299 299 299 298 298 298 298 298 298 298 298 298 298 298 298
303 303 302 302 302 302 302 302 302 301 301 300 299 298 298 298 298 300 301 303 303 303 303 303 303 303 303 303 302 302 302 302 301 302 302 301 301 301 300 300 300 300 300 299 299 299 299 300 300 300 300 300 300 300 300 300 299 299 299 298 298 298 298 297 297 297 297 297 297 298 298 298 298 297
302 302 302 302 302 302 302 301 301 301 300 300 299 298 298 298 297 298 298 300 301 302 302 302 302 302 302 302 301 301 301 301 301 301 300 300 300 300 300 300 300 300 300 299 299 299 299 299 299 299 299 299 299 299 299 299 299 298 298 297 297 297 297 296 296 296 296 296 296 296 297 297 297 296
301 302 301 301 301 301 301 301 300 300 300 299 298 298 299 299 300 300 300 301 301 301 301 301 301 301 301 301 301 300 300 300 300 300 300 300 300 300 300 300 300 299 299 299 299 298 298 299 298 298 298 298 297 297 298 298 298 297 297 296 296 296 296 295 295 295 295 295 295 295 296 296 296 296
301 302 302 301 301 300 300 300 299 299 299 298 298 298 299 299 300 300 301 301 300 300 300 300 300 300 300 300 300 300 299 299 299 299 299 299 299 299 299 299 299 299 299 299 298 298 298 299 299 299 298 298 296 295 295 296 296 296 296 295 295 295 295 294 294 294 294 294 294 294 295 295 295 295
301 301 300 300 300 299 299 298 298 298 298 298 298 298 298 298 299 299 298 298 298 298 298 298 299 299 299 299 299 299 298 299 299 298 298 299 299 299 299 299 299 298 298 298 298 298 297 298 298 298 299 298 297 295 294 293 294 295 295 294 294 294 294 294 294 294 294 294 294 294 294 294 294 294
299 299 298 298 298 298 297 297 298 298 298 298 298 298 298 297 297 297 297 297 297 297 297 297 298 298 298 298 298 298 298 298 298 298 298 298 298 298 298 298 298 298 298 297 297 297 297 297 297 297 297 297 297 296 295 293 293 293 293 293 293 293 293 293 293 293 293 293 293 293 293 293 293 293
298 297 297 297 297 297 297 297 297 297 298 298 297 297 297 297 297 297 297 297 297 297 297 297 297 297 297 297 297 297 297 297 297 297 297 297 297 297 297 297 297 297 297 297 296 296 296 296 296 296 296 296 295 295 295 295 294 293 293 293 292 292 292 292 292 293 293 293 293 293 293 293 293 293
297 296 297 297 297 297 297 296 297 297 297 297 297 297 297 297 297 297 297 297 296 296 296 296 297 297 297 297 297 297 296 297 297 297 297 297 296 296 296 296 296 297 296 296 296 296 296 296 295 295 295 296 295 294 294 294 294 293 292 292 292 291 291 291 292 292 293 293 292 292 292 292 292 293
296 296 296 297 297 297 296 296 297 297 297 297 297 297 297 297 297 297 296 296 296 296 296 296 296 296 296 296 296 296 296 296 296 296 296 296 296 296 296 296 296 296 296 295 296 296 295 295 294 294 294 294 294 293 293 293 293 293 292 291 290 290 290 291 291 292 292 292 292 292 292 292 292 293
296 296 296 296 296 296 296 296 296 296 296 296 296 296 296 296 296 296 296 296 296 296 296 295 295 296 296 295 295 296 295 295 295 295 295 295 294 294 295 295 295 295 295 294 295 295 295 294 292 292 292 292 292 292 293 293 293 293 293 292 290 290 290 291 291 292 292 292 292 292 292 292 292 292
295 294 294 295 295 295 295 296 296 296 295 295 295 295 295 295 295 295 295 295 295 295 295 295 295 295 295 295 295 295 295 295 295 295 294 294 293 293 293 294 294 294 294 294 294 294 294 293 291 291 292 292 292 292 293 293 293 292 292 292 291 290 290 290 290 290 291 291 291 291 291 291 291 291
295 295 294 294 294 294 295 295 295 295 295 295 295 294 295 294 294 294 294 294 294 295 295 294 294 294 294 294 294 294 294 294 294 294 294 294 293 293 293 293 293 293 293 293 293 293 293 293 292 291 292 292 292 292 293 293 292 292 291 291 291 290 290 290 289 289 289 290 290 290 290 290 290 290
295 295 294 294 294 294 294 295 295 295 295 295 294 294 294 294 294 294 294 294 294 294 294 294 294 294 294 294 294 294 294 294 293 293 293 293 293 293 293 292 292 292 293 293 293 292 292 292 291 291 291 291 291 292 292 291 291 292 291 291 290 290 290 290 289 289 289 290 290 289 288 288 289 289
294 293 293 293 293 293 294 294 294 294 294 294 294 294 294 294 294 294 294 294 294 294 294 294 294 294 294 294 294 294 293 293 293 293 293 292 293 293 292 292 292 292 292 292 292 292 292 292 291 291 291 291 291 291 291 291 291 291 291 290 290 290 290 290 290 289 290 290 290 289 288 288 288 288
293 293 292 292 292 292 293 293 293 293 293 293 294 294 294 294 294 294 294 294 294 294 294 294 294 294 294 294 294 293 293 293 293 293 293 293 293 292 292 292 292 292 292 291 291 291 292 291 291 291 292 292 291 291 291 291 291 291 290 290 290 290 290 290 290 290 290 291 290 289 289 288 288 288
Wind_Speed
12 13 13 13 12 11 10 10 9 9 9 9 9 10 10 7 5 5 5 6 8 9 10 9 8 8 8 9 9 9 9 11 12 9 8 8 6 9 11 9 8 8 8 8 6 5 5 6 5 3 3 2 1 2 2 3 4 3 3 3 3 3 2 2 1 1 1 2 2 3 4 4 4 4
13 13 13 12 11 10 10 10 10 10 9 9 9 9 9 6 4 5 5 5 8 10 10 8 9 10 10 9 9 8 8 11 11 7 7 8 7 8 8 7 7 7 7 7 6 5 5 5 4 3 2 1 1 2 2 3 4 4 4 3 3 3 2 2 2 3 3 3 4 4 5 6 6 6
13 13 12 12 10 10 10 11 11 11 10 10 10 8 8 5 3 4 4 3 6 9 10 8 8 11 11 9 9 8 7 10 10 7 7 8 8 8 8 8 8 7 7 6 6 5 5 4 4 2 1 1 1 1 2 2 3 4 4 4 4 4 4 4 4 4 4 5 6 6 6 6 7 7
12 13 12 12 10 10 11 12 11 11 10 10 10 9 9 8 5 5 4 5 7 7 9 9 9 10 11 9 9 8 7 9 10 8 7 9 9 8 7 8 9 8 7 7 6 5 5 4 3 3 2 1 1 2 2 3 3 4 4 4 5 6 6 6 6 6 6 6 7 7 8 8 7 8
11 12 12 11 10 11 12 12 11 12 11 11 10 9 10 10 9 7 6 7 9 8 8 9 9 9 10 9 9 9 8 9 10 9 8 10 10 8 7 7 8 8 7 7 6 5 5 5 4 3 3 2 2 2 3 3 4 4 4 5 6 7 7 7 7 8 7 7 8 8 9 9 9 8
11 11 12 11 11 12 12 12 12 12 12 12 12 10 11 11 11 9 6 7 11 11 9 9 9 9 9 9 9 9 8 8 10 9 9 10 9 8 8 7 7 8 7 6 6 5 5 4 4 4 3 3 3 3 4 4 5 5 6 7 7 8 8 9 9 10 9 9 9 9 10 11 11 10
13 13 13 12 12 13 13 12 11 12 12 12 12 11 10 10 11 10 7 7 11 12 11 10 9 9 8 7 8 9 8 8 9 10 10 10 9 8 9 7 7 7 7 6 6 5 5 5 4 4 4 4 4 4 5 5 6 7 7 8 9 9 10 10 11 11 11 11 11 11 11 11 12 11
13 14 14 13 14 14 13 12 11 11 12 12 11 11 11 10 11 11 9 8 10 12 12 10 9 10 9 7 7 9 8 8 9 9 9 9 9 8 8 7 7 8 7 6 6 6 6 6 5 5 5 5 5 6 7 7 8 9 9 10 11 12 12 12 13 13 14 14 14 13 13 13 13 13
14 14 14 14 14 14 13 13 12 12 13 13 11 12 12 12 12 11 10 9 10 12 12 10 9 9 9 7 7 8 8 8 9 8 8 9 8 8 8 7 7 9 8 8 8 8 8 7 7 7 7 8 8 9 10 10 11 11 12 13 13 14 14 15 15 15 16 17 17 16 16 15 15 14
14 14 14 14 14 14 13 13 12 12 13 13 12 12 12 12 13 12 11 10 11 11 12 11 10 9 8 7 7 7 7 8 8 8 8 9 8 8 8 8 8 9 10 10 10 10 10 10 10 10 10 11 12 12 13 13 14 15 15 16 16 17 17 18 18 18 18 19 19 19 18 18 17 15
13 14 14 13 14 14 14 13 13 13 14 13 12 12 12 12 13 12 11 11 11 11 11 11 11 10 9 8 7 8 8 7 7 8 8 9 9 9 10 9 9 9 10 12 12 12 13 13 14 13 13 14 16 16 17 17 18 18 19 19 19 20 20 21 21 21 21 21 21 21 20 20 19 17
13 13 13 13 13 13 12 12 12 13 14 13 12 12 11 11 12 12 11 11 11 11 10 10 10 10 9 9 7 8 8 8 8 8 8 8 9 10 10 10 10 9 9 10 11 12 13 14 15 15 15 14 15 16 17 18 19 20 21 22 22 23 24 24 24 24 24 24 24 24 23 21 21 19
13 13 12 12 12 12 12 12 13 14 14 12 12 12 12 12 12 11 11 11 11 11 10 10 10 10 9 9 9 9 9 8 7 7 7 7 7 8 8 9 10 9 9 9 10 10 10 10 11 11 12 11 10 11 12 13 14 14 16 18 19 21 23 24 26 27 27 27 26 25 25 23 22 21
13 12 12 13 14 13 13 14 15 16 15 12 11 12 12 11 10 9 10 10 10 10 10 9 9 9 9 9 9 9 8 7 6 6 7 8 7 7 7 7 7 7 7 8 9 9 9 8 8 8 9 8 6 6 6 7 10 11 12 13 14 15 17 19 21 24 26 28 28 27 27 25 24 22
13 12 12 14 15 13 14 15 15 16 15 13 12 12 12 11 10 9 9 9 8 8 8 8 8 8 7 8 8 8 7 7 7 6 7 8 8 8 8 7 7 7 6 7 8 9 7 6 6 5 5 3 1 2 4 6 9 11 11 12 12 12 14 15 16 18 20 23 26 27 28 27 26 24
14 13 12 12 13 13 15 15 15 14 13 12 12 12 12 12 12 10 8 7 7 6 6 6 6 6 6 6 6 6 5 6 6 6 6 7 7 7 8 8 5 5 5 7 8 8 6 5 4 4 2 1 1 4 7 8 9 9 9 10 10 10 11 13 14 16 17 18 20 23 26 27 27 25
13 14 14 12 13 15 16 16 16 15 14 12 12 11 11 11 11 10 9 8 7 6 4 5 5 4 4 5 5 5 4 4 5 6 6 6 6 5 6 5 2 4 2 5 7 8 5 4 2 3 2 1 1 6 8 10 11 10 10 10 9 9 9 10 12 14 15 16 16 18 22 25 26 25
13 14 14 14 15 16 15 16 17 17 16 14 13 12 12 12 11 11 11 10 9 6 4 5 6 5 4 5 5 5 4 2 3 4 4 4 4 4 2 1 3 3 1 4 6 8 4 2 1 3 2 2 2 5 9 11 13 13 12 11 11 10 10 9 10 12 13 14 14 15 17 21 23 24
13 14 15 16 17 16 15 16 17 16 15 15 14 13 13 13 12 12 11 10 9 7 7 7 8 7 7 7 6 6 4 1 1 2 2 2 2 3 3 5 6 4 3 4 5 8 5 3 4 5 5 4 4 5 9 13 15 15 14 13 12 12 11 10 10 12 12 13 12 12 13 17 20 22
12 12 14 15 15 15 17 19 18 15 14 14 14 14 13 12 12 11 10 9 8 7 7 7 7 8 8 7 7 8 6 3 3 2 2 2 3 6 7 8 11 5 3 5 4 7 6 4 5 7 6 6 6 6 7 12 16 16 15 14 13 13 13 12 11 11 11 11 9 8 10 13 17 18
14 14 14 13 13 16 20 20 18 16 14 12 13 13 13 12 12 11 10 9 8 7 7 7 7 7 7 5 5 5 5 5 4 3 4 4 3 7 8 5 10 7 3 6 4 5 6 3 5 7 7 5 5 6 6 9 14 16 17 17 16 15 15 14 13 12 10 9 7 6 7 9 13 16
17 18 16 13 15 19 20 18 17 16 13 11 12 13 13 12 11 10 10 10 10 8 8 7 7 6 6 5 4 3 2 4 4 0 2 1 2 5 5 3 3 6 6 6 3 4 5 3 3 6 7 4 3 2 5 7 10 13 15 17 18 17 16 14 13 12 11 9 6 4 4 7 11 13
16 17 17 16 18 19 18 17 16 14 11 10 11 11 12 12 11 10 9 9 9 7 7 7 6 6 6 6 5 5 3 2 3 2 4 3 3 3 1 3 3 3 6 6 2 2 3 2 3 5 6 5 2 2 6 8 9 11 12 14 16 18 18 17 15 13 12 10 7 4 2 5 9 10
16 17 17 18 18 18 16 14 14 13 11 10 10 9 10 11 11 10 9 10 9 7 6 6 6 5 6 6 6 7 7 5 4 4 4 5 4 2 0 1 2 1 5 6 3 1 3 3 4 5 5 5 5 5 5 4 6 9 11 11 13 15 16 15 15 14 13 10 7 3 2 5 8 9
20 19 18 18 16 15 14 12 11 11 11 10 10 10 11 13 13 11 10 10 9 8 7 7 6 6 7 7 7 7 8 7 7 6 6 6 6 4 3 2 0 3 4 4 4 2 4 3 4 6 5 5 7 6 3 1 3 6 8 8 10 11 12 12 12 12 12 11 7 3 2 4 8 10
23 20 18 16 14 13 13 12 11 10 8 8 10 10 11 13 14 13 11 10 9 8 7 7 7 6 7 7 7 7 7 7 7 7 7 7 6 6 6 6 4 4 3 3 4 4 4 3 3 6 6 6 7 7 4 2 4 7 8 8 9 10 11 11 11 11 10 9 6 5 4 5 8 11
22 20 18 15 14 13 13 13 12 11 10 10 11 11 10 11 12 11 11 10 9 8 8 7 7 6 6 6 6 6 6 6 5 5 5 6 6 6 6 7 7 7 4 2 4 4 3 2 2 4 5 6 7 6 5 5 6 7 8 9 9 10 10 11 11 10 9 8 8 8 7 7 8 10
21 21 18 15 13 13 13 14 13 13 13 13 13 12 10 10 10 9 9 9 8 7 7 7 7 6 6 6 6 6 6 5 5 5 5 5 6 6 7 8 7 7 5 4 4 4 3 2 2 3 3 5 5 5 5 6 7 8 9 9 10 9 10 10 11 10 9 9 8 8 6 6 7 8
22 20 18 15 13 13 14 15 15 15 15 14 12 11 11 10 8 7 7 6 6 6 6 6 7 6 6 6 7 6 6 5 5 5 5 5 5 6 7 7 7 6 6 5 4 4 4 3 3 3 3 4 4 5 5 6 7 7 8 9 10 9 9 10 10 9 9 9 9 8 7 6 6 7
19 17 15 14 14 15 15 15 16 16 15 12 10 10 10 9 7 7 6 5 5 6 6 6 7 7 7 7 7 6 5 5 4 4 4 4 4 4 4 4 5 5 5 5 5 4 4 4 4 4 3 3 4 4 5 6 7 7 7 8 9 9 9 10 10 10 10 11 10 9 8 7 6 7
16 14 13 14 14 13 13 14 14 14 13 11 9 8 7 7 8 7 7 7 6 6 6 6 7 7 7 7 7 6 5 5 5 4 3 4 4 3 3 3 3 4 4 4 5 5 4 4 4 4 4 4 5 4 5 5 5 7 7 8 8 8 8 10 10 10 11 12 11 10 8 7 6 7
12 11 10 10 10 10 11 12 12 11 9 9 9 8 8 8 8 7 7 7 7 6 6 6 6 6 6 6 6 6 6 5 5 4 3 3 3 3 2 2 2 2 3 3 4 4 3 3 4 4 4 5 5 5 4 4 5 6 7 7 8 8 8 9 10 11 12 12 11 11 10 8 7 8
8 8 9 9 9 10 11 11 10 8 7 7 7 8 7 6 6 6 5 5 5 5 5 6 6 6 6 6 6 6 6 5 4 3 3 3 2 2 2 2 2 2 2 2 3 4 2 0 2 4 5 5 6 6 5 5 5 6 6 7 8 8 9 10 11 11 12 12 12 12 12 10 9 9
6 9 11 11 10 9 9 8 8 6 6 5 5 6 6 5 4 5 5 5 5 5 5 6 6 5 5 5 5 5 5 4 4 3 2 2 2 2 2 2 2 2 2 2 2 3 2 2 6 9 10 9 8 9 8 7 6 6 7 8 8 9 10 11 11 12 12 12 12 12 13 12 11 10
8 9 9 8 7 6 6 6 5 4 4 5 4 5 5 5 5 6 6 6 6 6 6 6 6 6 5 5 4 4 4 4 4 3 2 2 2 2 3 3 3 3 2 2 2 3 3 1 2 5 7 8 8 10 10 9 9 9 9 9 10 10 11 12 12 12 12 12 12 12 13 13 12 11
8 7 7 6 6 6 5 5 4 4 4 4 4 5 5 6 6 6 6 6 5 5 6 6 6 6 5 5 4 4 4 4 4 4 4 4 4 3 4 4 3 3 3 3 3 2 3 3 3 2 1 1 0 4 8 9 9 9 9 10 10 11 12 13 13 13 13 13 13 13 13 13 13 12
9 7 7 7 7 6 6 5 5 5 4 4 4 5 5 5 5 6 6 6 5 5 5 5 5 5 5 5 5 5 4 4 5 5 5 5 5 5 4 4 3 3 3 3 3 3 3 4 5 4 4 3 3 3 5 6 8 9 9 10 10 12 13 14 13 13 12 12 12 13 13 13 14 13
9 8 7 7 6 6 6 5 5 4 4 4 4 4 4 4 4 5 4 4 4 4 5 5 5 5 5 5 5 5 5 5 5 5 5 5 5 4 4 4 3 3 4 3 3 4 4 5 6 6 6 5 4 5 6 5 4 7 9 9 9 11 13 14 13 12 12 12 12 13 13 13 13 13
9 8 7 6 5 5 5 4 4 3 3 3 3 3 3 3 3 3 3 3 3 3 3 4 4 5 5 5 5 4 5 5 6 6 6 5 4 3 3 3 3 3 4 3 3 4 6 6 7 7 8 8 7 6 7 8 8 4 3 6 10 12 12 12 12 12 12 12 13 13 12 12 12 11
7 7 6 5 4 4 4 3 3 3 3 2 2 2 2 2 2 2 3 3 4 4 4 5 5 6 6 5 5 5 6 6 5 6 5 5 4 3 2 2 3 3 4 4 4 5 6 7 8 8 8 7 6 5 5 6 7 3 0 4 10 13 12 11 11 11 11 12 13 14 12 13 13 12
5 5 5 4 4 3 3 2 2 2 2 3 2 2 2 2 2 2 3 4 4 4 5 6 6 6 6 5 4 5 6 6 5 5 5 5 5 3 1 1 2 3 4 3 4 5 6 6 8 8 7 5 5 6 6 5 5 5 4 5 8 11 12 11 10 10 10 11 13 13 13 13 14 13
3 3 3 3 3 2 2 1 1 1 1 2 2 2 2 2 2 3 4 5 4 5 6 6 7 7 6 4 4 5 5 4 4 4 3 4 4 3 2 3 3 3 3 3 4 5 5 6 7 8 6 5 5 6 5 4 5 6 7 6 8 10 10 9 10 11 9 7 9 10 12 14 14 13
3 2 2 1 1 1 1 1 1 1 1 1 1 1 2 3 3 4 4 4 4 5 6 7 7 6 5 5 5 5 4 4 4 3 2 2 2 3 3 4 3 2 3 4 5 5 4 5 6 7 6 5 5 4 4 4 5 6 6 7 9 10 9 9 12 13 9 4 4 7 9 11 12 12
4 3 2 1 1 0 1 1 0 0 1 1 1 1 2 3 3 3 3 4 5 6 6 6 6 6 5 5 4 4 3 3 3 2 2 2 2 2 2 2 2 3 4 4 4 4 4 4 6 6 5 4 4 4 3 4 5 6 6 7 8 9 9 9 12 11 6 4 1 7 10 11 13 13
5 4 3 2 1 0 0 0 1 1 1 1 1 2 2 3 3 3 3 4 5 6 6 6 6 6 4 4 3 2 2 2 2 1 1 1 1 1 2 2 3 3 4 5 4 4 4 4 4 4 3 3 3 2 3 3 4 4 5 6 7 8 9 9 10 11 6 2 1 6 11 13 14 14
Wind_Direction
197 198 201 203 196 181 182 192 187 181 184 181 182 187 188 183 169 175 183 178 170 170 172 164 161 171 166 164 163 154 156 144 128 135 154 157 169 154 149 162 166 173 179 176 187 193 182 178 171 150 144 151 158 162 177 179 175 180 178 180 180 167 170 183 192 224 267 308 322 321 318 321 324 323
197 202 201 202 195 177 179 188 180 180 184 183 189 193 190 193 197 194 192 174 167 174 180 171 164 169 166 166 164 157 168 158 142 150 161 164 182 165 154 168 169 170 174 172 180 178 169 168 164 152 136 127 129 145 168 184 183 192 197 203 211 218 239 256 267 278 293 306 309 311 311 314 315 314
196 202 200 199 190 170 176 183 176 180 183 183 191 190 181 180 196 210 208 161 157 173 180 167 155 164 166 167 164 156 170 170 155 151 165 179 188 172 167 177 173 171 172 172 178 175 168 168 167 174 178 177 195 175 187 200 205 213 217 224 234 246 258 263 273 280 287 295 299 301 301 305 306 304
193 198 196 196 186 169 177 182 177 182 183 184 189 185 181 180 178 203 204 152 147 166 171 160 152 160 163 165 168 160 164 176 164 153 175 187 175 165 176 176 166 167 169 170 177 175 175 180 186 198 210 221 226 220 219 216 225 232 233 241 248 255 259 263 270 274 278 284 288 292 293 296 298 294
190 197 195 192 184 175 181 182 182 186 183 183 186 183 186 182 174 192 196 156 148 151 157 159 155 159 165 170 173 165 163 174 170 163 178 180 166 165 182 175 162 162 164 167 171 174 181 187 193 201 212 226 228 228 231 230 239 242 239 246 252 254 258 261 266 270 274 276 279 283 286 290 293 290
186 194 196 193 186 184 188 189 188 186 182 185 185 184 189 179 170 187 195 160 155 155 155 158 153 158 172 176 174 173 169 171 174 173 175 175 171 173 178 175 173 168 163 168 170 173 181 184 190 201 205 219 228 234 237 235 241 244 241 245 250 254 256 259 264 269 272 273 274 277 279 283 288 288
184 189 195 193 188 189 191 193 192 184 183 191 188 183 188 178 170 184 192 168 160 157 156 162 160 162 175 179 174 176 172 171 178 179 177 179 179 179 176 177 187 184 177 180 181 183 191 194 198 205 213 227 236 242 246 246 247 248 247 247 250 253 255 258 262 266 270 272 272 273 275 278 281 284
183 186 193 192 190 191 191 192 193 185 184 193 190 182 183 178 173 179 182 173 163 155 155 166 165 162 172 177 169 169 170 174 182 182 181 184 182 184 181 179 195 203 197 200 204 205 208 214 217 222 230 240 248 252 254 256 256 256 255 254 255 257 258 259 261 264 267 271 272 272 274 274 276 279
183 186 191 191 189 190 190 190 191 187 185 190 188 183 182 178 175 176 176 171 165 158 157 161 159 159 168 170 165 171 172 173 182 186 187 189 189 190 190 192 212 221 219 221 226 228 231 235 238 242 247 252 257 260 262 264 264 264 264 262 262 262 262 262 263 265 266 268 271 272 273 274 274 276
182 185 188 188 188 189 190 190 189 186 185 188 187 182 182 177 173 174 176 170 166 163 159 158 160 164 169 168 167 178 179 175 182 185 187 195 198 198 200 205 215 225 232 238 241 242 246 249 251 253 256 261 264 263 264 266 267 268 268 268 268 267 266 266 265 266 267 267 269 269 270 272 272 273
182 185 185 185 186 187 189 187 185 182 182 186 185 181 181 176 170 171 174 170 167 168 166 165 167 169 173 177 176 177 181 185 186 183 187 195 198 204 212 216 215 219 233 246 253 255 258 261 264 266 266 267 270 271 271 271 271 271 271 271 272 271 270 269 268 267 267 267 267 267 267 269 270 271
180 181 181 181 183 187 188 183 180 178 179 180 177 176 175 169 167 170 171 171 171 173 175 174 171 169 173 180 178 173 180 193 197 194 197 198 197 203 211 217 220 219 224 238 252 259 264 267 268 272 275 273 274 275 274 273 273 274 275 276 276 276 274 272 271 269 268 267 267 266 266 266 267 268
174 174 175 179 182 186 185 180 177 175 176 176 170 169 169 165 167 170 169 174 179 179 181 181 178 179 182 183 183 183 191 200 198 194 204 214 211 208 214 221 222 223 230 238 245 249 252 256 256 259 266 273 284 291 287 285 285 284 281 280 279 278 277 275 273 271 269 268 266 266 266 264 265 265
165 164 168 177 181 184 183 180 178 176 174 172 164 165 169 168 171 174 174 180 183 182 185 184 183 190 192 188 190 191 194 198 194 191 204 218 223 223 235 233 210 213 240 249 252 247 234 234 245 247 249 256 281 305 302 296 302 303 296 289 284 281 279 276 274 272 270 268 267 265 265 264 263 262
155 152 164 175 176 177 178 176 175 175 174 176 173 174 179 178 176 178 183 187 189 193 194 187 191 202 194 183 190 193 188 189 198 204 212 226 233 231 243 240 200 204 242 250 255 253 221 217 258 269 258 248 254 295 272 277 298 305 304 301 297 292 287 282 278 274 270 268 266 264 263 262 261 260
156 151 153 160 165 171 171 168 168 170 171 175 178 180 185 186 183 181 178 176 180 193 198 187 192 203 188 176 186 191 188 191 199 208 215 228 239 236 249 255 204 181 229 240 249 252 209 194 269 276 245 301 322 279 285 307 321 320 316 314 310 305 299 292 286 280 274 269 264 262 260 259 258 257
157 154 150 152 162 168 165 163 164 163 158 158 157 156 158 162 168 171 168 161 157 163 185 183 173 174 179 173 167 166 171 184 198 214 217 218 231 235 246 259 181 132 224 251 261 264 216 171 273 271 214 78 315 285 300 327 339 336 330 326 320 315 309 300 292 286 279 273 266 261 259 257 255 255
156 154 152 154 158 157 153 154 157 152 145 139 132 126 123 125 133 142 145 146 139 122 119 137 129 115 123 132 136 150 160 176 206 226 226 217 229 234 219 166 116 100 340 300 291 285 261 144 326 288 300 353 329 312 318 329 337 341 337 332 327 322 313 304 295 287 282 278 272 264 260 256 253 253
155 153 152 151 149 147 146 148 147 143 140 134 125 118 117 121 129 131 130 134 131 114 109 126 136 140 139 135 145 158 156 168 219 215 222 219 232 235 199 151 126 93 28 1 314 294 299 353 330 299 314 327 320 333 339 335 337 343 343 338 335 330 322 312 300 290 284 283 277 269 263 256 252 250
140 143 152 151 146 147 151 151 148 142 138 133 126 119 115 118 123 121 119 125 131 132 135 143 149 154 152 150 159 162 159 163 176 189 214 213 232 247 224 162 134 116 40 37 360 300 294 332 320 299 308 314 299 313 341 340 338 345 351 350 350 350 343 333 321 309 297 290 284 275 267 258 251 246
134 136 142 142 141 150 155 155 151 144 137 134 130 125 119 116 114 113 118 124 125 128 134 135 136 139 141 141 146 154 157 154 161 216 236 218 240 267 258 180 138 128 67 50 29 302 285 303 309 300 304 297 287 309 340 346 343 348 354 353 355 2 3 354 343 333 321 308 295 280 271 259 246 241
143 143 143 143 145 149 151 151 149 144 140 143 141 135 129 123 117 117 124 125 121 118 118 119 119 118 114 104 101 106 122 138 141 316 312 257 261 274 280 276 156 130 89 55 23 300 291 299 300 303 301 271 226 322 350 348 345 349 353 349 345 352 3 7 2 352 341 330 315 290 269 249 236 235
144 146 149 149 147 146 146 148 150 147 144 144 144 140 134 131 131 133 131 126 122 116 108 103 97 93 87 74 63 59 51 100 142 76 37 20 299 267 276 318 277 149 93 61 28 311 308 309 302 311 312 291 256 325 338 337 339 344 350 348 342 345 355 3 5 4 0 348 329 308 250 228 227 228
134 137 140 141 141 142 145 151 156 152 143 134 131 133 133 135 140 147 153 152 144 134 126 120 110 101 95 82 68 64 55 57 88 91 65 47 9 325 159 286 276 57 51 51 65 343 315 311 312 315 315 302 300 317 330 337 349 351 351 351 347 348 355 359 357 359 4 2 347 327 211 215 222 222
120 121 124 130 135 139 143 148 154 154 149 141 138 141 145 146 144 144 152 152 141 133 137 133 120 109 103 94 84 79 69 60 63 65 61 55 40 25 17 353 156 97 51 49 77 18 320 318 328 318 304 291 297 308 315 6 31 9 357 360 1 357 359 3 360 356 359 5 3 344 252 237 236 231
115 115 118 124 130 137 140 140 140 140 142 144 141 139 143 146 140 133 136 138 131 131 136 130 121 116 111 104 99 93 84 75 68 63 61 60 55 53 49 34 48 87 83 56 56 17 330 335 347 322 311 307 306 309 310 336 14 1 352 3 9 1 358 4 7 4 2 1 354 329 293 272 258 244
117 119 119 120 125 131 132 128 124 123 122 121 120 119 124 135 135 129 128 130 129 130 131 128 124 123 121 119 116 107 96 88 83 77 74 72 66 71 82 74 69 80 88 60 40 20 339 343 359 332 324 319 315 318 325 335 349 347 343 353 2 2 1 0 0 2 2 356 343 333 319 297 280 261
121 121 118 117 119 121 119 116 114 112 109 107 109 113 118 124 124 120 119 122 125 126 128 128 123 121 123 123 118 112 107 105 102 98 97 97 89 83 84 82 79 83 85 66 47 43 27 12 5 355 342 329 329 342 344 338 345 351 348 345 351 1 2 354 351 353 351 346 341 335 325 307 296 286
115 115 115 116 117 114 113 112 108 104 103 104 110 119 122 117 110 107 111 120 127 125 123 122 119 117 119 118 115 116 119 121 121 118 117 119 117 107 92 80 73 71 69 61 56 56 52 39 20 11 7 355 353 357 345 334 342 358 0 348 343 350 354 352 353 352 344 339 337 329 318 307 302 301
108 110 115 119 119 117 114 110 107 105 106 110 118 126 128 125 117 111 108 108 113 116 114 114 117 118 116 115 116 121 126 125 124 126 130 129 126 124 116 98 83 74 64 57 54 52 47 38 27 18 13 6 3 359 347 336 336 348 359 353 343 343 350 351 353 354 346 340 337 332 326 321 315 312
105 110 117 118 116 116 114 112 111 112 114 118 122 123 124 124 121 121 119 110 103 105 109 110 111 113 115 118 120 121 121 115 105 105 121 127 123 127 135 128 107 90 71 52 43 41 41 38 28 21 12 5 358 344 331 334 344 348 354 355 348 345 350 350 350 353 351 341 335 335 336 336 332 326
101 108 114 115 115 118 118 115 111 111 114 115 112 107 104 104 102 106 113 112 104 102 110 114 114 116 117 116 116 116 112 107 103 106 115 121 123 129 136 131 109 95 81 52 31 28 35 39 33 35 38 28 13 354 338 353 11 5 355 357 357 354 356 354 350 349 348 342 338 338 338 338 336 330
104 123 129 130 130 128 123 117 109 105 104 103 103 104 100 93 90 92 99 105 104 106 114 115 113 116 117 113 113 114 110 105 104 109 115 120 123 129 122 97 74 68 66 49 28 16 12 142 137 119 111 82 42 23 11 13 24 19 7 3 2 358 355 351 345 343 343 342 342 341 338 336 338 335
130 145 142 137 133 128 122 115 110 104 98 96 103 109 102 91 94 101 100 102 104 104 106 107 106 109 114 115 115 115 114 116 116 111 111 113 110 117 116 100 89 84 75 66 44 24 18 179 175 163 152 134 97 66 45 23 13 12 9 4 360 355 350 345 341 340 340 340 341 340 337 337 338 338
138 141 135 124 119 116 109 103 97 91 91 92 96 101 99 95 99 100 96 98 102 101 100 101 101 103 105 107 112 120 128 131 126 121 119 114 112 122 123 113 113 112 94 82 72 45 31 42 165 170 166 154 127 97 76 51 27 13 6 4 1 353 345 342 340 338 336 338 339 337 336 336 336 336
122 119 116 108 104 101 96 90 81 77 85 93 95 100 102 98 99 105 106 104 103 102 104 105 106 107 110 113 123 136 139 131 128 130 125 112 103 99 98 102 112 115 100 86 81 71 58 46 33 21 343 267 123 96 89 77 58 32 10 358 355 351 343 339 338 336 336 338 339 337 335 334 330 330
117 109 105 101 99 97 92 86 81 78 81 86 90 102 110 107 105 112 111 105 99 99 102 104 105 107 113 122 131 137 133 129 134 136 127 122 119 113 109 115 120 112 109 106 92 73 62 54 42 28 12 355 353 30 58 77 80 60 28 359 347 347 344 338 335 335 336 337 338 337 335 333 328 326
105 95 86 79 77 76 75 76 80 83 88 95 99 110 122 123 121 120 114 105 102 106 109 109 111 118 130 138 141 143 140 137 134 127 119 122 127 125 123 129 127 113 110 112 102 81 60 46 37 27 17 10 9 17 14 8 25 42 32 13 357 349 344 340 336 334 335 337 337 336 335 334 331 327
92 81 72 67 66 68 71 77 83 84 83 93 108 119 131 138 138 139 138 128 117 119 125 126 129 138 145 148 149 143 132 126 122 122 122 122 119 120 117 111 108 104 92 74 65 69 60 44 31 22 15 12 11 8 356 342 336 343 30 30 18 5 352 344 339 336 336 337 335 333 334 335 333 330
103 91 81 74 69 72 76 77 81 85 83 84 93 106 126 143 143 133 133 131 124 126 131 134 142 147 143 140 141 131 119 113 109 111 115 106 96 100 110 105 99 96 87 69 47 48 52 44 29 17 10 8 360 334 303 300 303 288 199 25 15 11 4 354 345 339 337 338 335 333 335 337 334 332
93 92 90 86 80 83 89 88 87 89 83 79 87 97 105 121 135 134 135 134 131 135 140 143 149 149 142 139 137 124 117 120 122 123 124 115 105 100 82 80 84 79 78 75 54 43 43 37 23 12 5 357 332 308 293 291 308 331 344 346 356 4 5 3 360 348 337 337 338 335 338 339 334 331
61 68 76 78 73 77 87 94 104 112 94 84 93 104 105 107 110 121 132 135 135 142 148 148 146 147 144 135 121 111 110 116 123 130 137 134 128 117 76 65 72 64 56 65 57 44 36 27 15 4 357 349 329 324 337 349 346 346 344 341 350 351 342 346 358 351 333 335 346 344 344 343 337 334
54 60 64 73 79 82 84 84 102 156 159 140 129 126 131 132 125 123 132 142 148 153 154 151 148 149 142 123 110 107 112 118 120 120 116 104 98 88 75 72 71 51 40 52 53 42 31 26 15 5 2 1 351 346 353 347 340 347 350 348 350 341 324 329 345 337 314 302 358 6 3 355 345 338
57 52 48 55 67 86 103 113 147 173 177 191 191 191 185 178 168 159 153 155 159 159 155 152 151 147 136 125 122 122 117 117 125 133 127 105 77 73 76 75 68 47 35 35 34 28 24 20 9 9 19 19 9 14 11 346 343 358 358 348 342 336 331 340 345 333 290 220 10 16 14 4 354 349
62 57 51 54 59 75 82 54 247 208 182 199 207 209 207 192 180 173 161 156 160 159 155 153 152 143 132 128 135 139 140 146 150 151 132 114 94 79 62 46 41 41 35 29 20 13 16 15 7 13 29 19 358 12 9 337 331 346 352 346 339 336 340 348 349 345 333 229 223 7 4 355 348 346